GW3011 Weather Reports


time (UTC)temp
C
wind
direction
speed
KPH
gust
KPH
rain 1hr
cm
rain 24hr
cm
rain mn
cm
humidity
%
barometer
mb
20260509061619 13 312 0.0 0.0 0.00 0.00 0.00 78 1011.9
20260509061117 13 312 0.0 1.6 0.00 0.00 0.00 77 1011.9
20260509060615 13 312 1.6 3.2 0.00 0.00 0.00 77 1012.0
20260509060110 13 305 0.0 0.0 0.00 0.00 0.00 76 1012.3
20260509055606 13 331 1.6 1.6 0.00 0.00 0.00 75 1012.0
20260509055102 13 318 0.0 0.0 0.00 0.00 0.00 74 1012.3
20260509054559 13 341 1.6 1.6 0.00 0.00 0.00 73 1012.3
20260509054057 13 317 1.6 1.6 0.00 0.00 0.00 72 1012.1
20260509053555 13 310 1.6 1.6 0.00 0.00 0.00 71 1012.3
20260509053051 13 322 1.6 1.6 0.00 0.00 0.00 70 1012.1
20260509052549 13 357 1.6 1.6 0.00 0.00 0.00 69 1012.1
20260509052047 13 314 0.0 0.0 0.00 0.00 0.00 67 1012.4
20260509051545 13 317 0.0 0.0 0.00 0.00 0.00 67 1012.3
20260509051041 13 315 0.0 0.0 0.00 0.00 0.00 66 1012.2
20260509050539 13 319 0.0 0.0 0.00 0.00 0.00 66 1012.1
20260509050035 13 319 0.0 0.0 0.00 0.00 0.00 66 1012.1
20260509045532 13 317 0.0 0.0 0.00 0.00 0.00 67 1012.1
20260509045029 12 316 0.0 0.0 0.00 0.00 0.00 68 1012.0
20260509044527 12 316 0.0 0.0 0.00 0.00 0.00 69 1012.1
20260509044024 12 315 0.0 0.0 0.00 0.00 0.00 69 1011.9
20260509043520 12 315 0.0 0.0 0.00 0.00 0.00 69 1012.0
20260509043010 12 315 0.0 0.0 0.00 0.00 0.00 69 1012.1
20260509042507 12 315 0.0 0.0 0.00 0.00 0.00 68 1012.2
20260509042003 12 315 0.0 0.0 0.00 0.00 0.00 69 1012.0
20260509041500 12 316 0.0 0.0 0.00 0.00 0.00 68 1012.1
20260509040958 12 315 0.0 0.0 0.00 0.00 0.00 68 1012.0
20260509040456 12 315 0.0 0.0 0.00 0.00 0.00 68 1011.9
20260509035952 13 315 0.0 0.0 0.00 0.00 0.00 66 1012.0
20260509035449 13 317 0.0 1.6 0.00 0.00 0.00 66 1012.1
20260509034945 13 313 0.0 1.6 0.00 0.00 0.00 65 1012.3
20260509034443 13 314 0.0 1.6 0.00 0.00 0.00 65 1012.3
20260509033940 13 310 0.0 0.0 0.00 0.00 0.00 65 1012.1
20260509033437 13 310 0.0 0.0 0.00 0.00 0.00 65 1012.2
20260509032934 13 311 0.0 1.6 0.00 0.00 0.00 65 1012.1
20260509032431 13 315 1.6 1.6 0.00 0.00 0.00 65 1012.2
20260509031929 13 314 0.0 0.0 0.00 0.00 0.00 65 1012.1
20260509031426 13 315 0.0 0.0 0.00 0.00 0.00 65 1012.5
20260509030924 13 311 0.0 1.6 0.00 0.00 0.00 64 1012.3
20260509030421 13 311 0.0 0.0 0.00 0.00 0.00 63 1012.2
20260509025918 13 311 0.0 0.0 0.00 0.00 0.00 63 1012.5
20260509025414 13 311 0.0 0.0 0.00 0.00 0.00 63 1012.3
20260509024909 14 312 0.0 1.6 0.00 0.00 0.00 62 1012.3
20260509024405 14 311 0.0 0.0 0.00 0.00 0.00 61 1012.6
20260509023903 14 308 0.0 0.0 0.00 0.00 0.00 61 1012.4
20260509023400 14 15 0.0 1.6 0.00 0.00 0.00 62 1012.5
20260509022856 14 308 0.0 0.0 0.00 0.00 0.00 62 1012.5
20260509022353 14 309 0.0 0.0 0.00 0.00 0.00 62 1012.4
20260509021850 14 319 0.0 0.0 0.00 0.00 0.00 61 1012.0
20260509021347 14 308 0.0 0.0 0.00 0.00 0.00 61 1012.2
20260509020845 14 27 0.0 1.6 0.00 0.00 0.00 61 1012.4
20260509020343 14 357 0.0 1.6 0.00 0.00 0.00 61 1012.3
20260509015840 14 7 3.2 6.4 0.00 0.00 0.00 61 1012.5
20260509015338 14 316 3.2 3.2 0.00 0.00 0.00 61 1012.0
20260509014835 14 337 0.0 1.6 0.00 0.00 0.00 62 1012.0
20260509014332 14 306 1.6 1.6 0.00 0.00 0.00 62 1012.2
20260509013828 13 310 0.0 1.6 0.00 0.00 0.00 62 1011.9
20260509013324 13 349 3.2 4.8 0.00 0.00 0.00 62 1011.9
20260509012815 14 341 4.8 9.7 0.00 0.00 0.00 60 1011.9
20260509012312 14 6 1.6 3.2 0.00 0.00 0.00 60 1011.9
20260509011809 14 356 3.2 4.8 0.00 0.00 0.00 60 1011.6
20260509011307 14 350 4.8 6.4 0.00 0.00 0.00 60 1011.8
20260509010804 14 326 3.2 4.8 0.00 0.00 0.00 61 1011.6
20260509010300 14 336 1.6 3.2 0.00 0.00 0.00 61 1011.4
20260509005758 15 307 3.2 4.8 0.00 0.00 0.00 60 1011.4
20260509005256 15 310 1.6 1.6 0.00 0.00 0.00 56 1011.3
20260509004756 15 316 0.0 0.0 0.00 0.00 0.00 54 1011.2
20260509004253 15 313 0.0 0.0 0.00 0.00 0.00 54 1011.1
20260509003751 15 319 1.6 1.6 0.00 0.00 0.00 54 1011.0
20260509003248 15 320 0.0 1.6 0.00 0.00 0.00 53 1011.0
20260509002745 15 311 0.0 0.0 0.00 0.00 0.00 54 1010.7
20260509002243 15 314 1.6 1.6 0.00 0.00 0.00 53 1010.9
20260509001740 15 311 0.0 0.0 0.00 0.00 0.00 53 1010.7
20260509001236 15 311 0.0 0.0 0.00 0.00 0.00 53 1010.9
20260509000734 15 323 0.0 0.0 0.00 0.00 0.00 53 1010.8
20260509000233 15 310 0.0 0.0 0.00 0.00 0.00 53 1011.0
20260508235728 15 309 3.2 3.2 0.00 0.00 0.00 52 1011.0
20260508235225 15 300 0.0 1.6 0.00 0.00 0.00 52 1010.8
20260508234722 15 301 1.6 1.6 0.00 0.00 0.00 51 1010.9
20260508234218 15 303 0.0 1.6 0.00 0.00 0.00 51 1010.7
20260508233717 15 306 0.0 0.0 0.00 0.00 0.00 53 1010.8
20260508233215 15 303 0.0 1.6 0.00 0.00 0.00 51 1010.7
20260508232712 15 335 0.0 1.6 0.00 0.00 0.00 51 1010.7
20260508232208 15 298 1.6 1.6 0.00 0.00 0.00 51 1010.8
20260508231707 16 301 3.2 4.8 0.00 0.00 0.00 50 1010.7
20260508231203 16 219 3.2 4.8 0.00 0.00 0.00 49 1010.7
20260508230655 16 305 0.0 0.0 0.00 0.00 0.00 49 1010.6
20260508230150 15 306 0.0 1.6 0.00 0.00 0.00 50 1010.5
20260508225649 15 299 0.0 0.0 0.00 0.00 0.00 50 1010.4
20260508225144 16 292 3.2 4.8 0.00 0.00 0.00 49 1010.4
20260508224643 16 286 3.2 3.2 0.00 0.00 0.00 48 1010.5
20260508224140 16 303 1.6 1.6 0.00 0.00 0.00 48 1010.7
20260508223638 16 292 0.0 0.0 0.00 0.00 0.00 49 1010.5
20260508223135 16 304 3.2 3.2 0.00 0.00 0.00 49 1010.6
20260508222632 15 304 1.6 3.2 0.00 0.00 0.00 50 1010.6
20260508222129 16 301 3.2 3.2 0.00 0.00 0.00 49 1010.7
20260508221625 16 298 1.6 1.6 0.00 0.00 0.00 49 1010.4
20260508221121 16 294 3.2 4.8 0.00 0.00 0.00 48 1010.6
20260508220618 16 303 3.2 4.8 0.00 0.00 0.00 46 1010.4
20260508220114 17 260 3.2 4.8 0.00 0.00 0.00 46 1010.5
20260508215611 17 231 3.2 4.8 0.00 0.00 0.00 45 1010.2
20260508215108 17 278 3.2 3.2 0.00 0.00 0.00 44 1010.4
20260508214605 17 264 3.2 4.8 0.00 0.00 0.00 45 1010.5
20260508214101 17 272 4.8 4.8 0.00 0.00 0.00 43 1010.4
20260508213558 16 291 4.8 6.4 0.00 0.00 0.00 43 1010.3
20260508213054 17 291 8.0 11.3 0.00 0.00 0.00 44 1010.4
20260508212551 17 276 4.8 6.4 0.00 0.00 0.00 44 1010.4
20260508212048 16 227 6.4 9.7 0.00 0.00 0.00 44 1010.4
20260508211543 16 279 4.8 4.8 0.00 0.00 0.00 45 1010.5
20260508211040 16 300 1.6 3.2 0.00 0.00 0.00 48 1010.7
20260508210536 16 273 3.2 4.8 0.00 0.00 0.00 47 1010.5
20260508210034 16 293 3.2 3.2 0.00 0.00 0.00 47 1010.6
20260508205531 16 225 4.8 6.4 0.00 0.00 0.00 46 1010.5
20260508205027 16 306 4.8 4.8 0.00 0.00 0.00 45 1010.4
20260508204524 16 267 4.8 4.8 0.00 0.00 0.00 46 1010.6
20260508204020 16 255 3.2 4.8 0.00 0.00 0.00 46 1010.7
20260508203516 16 276 3.2 3.2 0.00 0.00 0.00 46 1010.7
20260508203012 16 274 3.2 3.2 0.00 0.00 0.00 47 1010.5
20260508202509 16 300 3.2 3.2 0.00 0.00 0.00 45 1010.7
20260508202006 16 316 8.0 11.3 0.00 0.00 0.00 44 1010.4
20260508201503 16 260 4.8 6.4 0.00 0.00 0.00 42 1010.4
20260508200959 16 290 3.2 4.8 0.00 0.00 0.00 42 1010.4
20260508200456 16 202 11.3 14.5 0.00 0.00 0.00 41 1010.5
20260508195950 16 302 1.6 1.6 0.00 0.00 0.00 43 1010.3
20260508195449 17 299 3.2 4.8 0.00 0.00 0.00 42 1010.2
20260508194944 16 189 4.8 9.7 0.00 0.00 0.00 42 1010.4
20260508194442 17 196 8.0 17.7 0.00 0.00 0.00 41 1010.4
20260508193939 17 327 6.4 6.4 0.00 0.00 0.00 42 1010.3
20260508193436 17 321 1.6 1.6 0.00 0.00 0.00 41 1010.5
20260508192932 17 292 3.2 4.8 0.00 0.00 0.00 41 1010.3
20260508192429 16 282 4.8 6.4 0.00 0.00 0.00 43 1010.5
20260508191926 17 251 3.2 4.8 0.00 0.00 0.00 43 1010.5
20260508191423 17 307 1.6 1.6 0.00 0.00 0.00 40 1010.5
20260508190920 17 324 6.4 11.3 0.00 0.00 0.00 40 1010.6
20260508190417 17 211 6.4 12.9 0.00 0.00 0.00 41 1010.6
20260508185913 16 326 6.4 9.7 0.00 0.00 0.00 41 1010.5
20260508185411 16 301 0.0 1.6 0.00 0.00 0.00 41 1010.7
20260508184908 16 289 3.2 4.8 0.00 0.00 0.00 40 1010.8
20260508184405 16 201 17.7 20.9 0.00 0.00 0.00 40 1010.8
20260508183901 16 39 4.8 6.4 0.00 0.00 0.00 40 1010.8
20260508183358 17 19 8.0 16.1 0.00 0.00 0.00 40 1010.8
20260508182848 17 248 6.4 11.3 0.00 0.00 0.00 39 1010.9
20260508182345 17 276 9.7 16.1 0.00 0.00 0.00 39 1010.8
20260508181840 17 289 4.8 6.4 0.00 0.00 0.00 38 1010.9
20260508181337 17 228 3.2 6.4 0.00 0.00 0.00 40 1010.9
20260508180835 17 217 3.2 3.2 0.00 0.00 0.00 41 1010.9
20260508180331 17 345 4.8 6.4 0.00 0.00 0.00 39 1010.8
20260508175827 17 173 9.7 14.5 0.00 0.00 0.00 39 1011.0
20260508175324 16 260 6.4 12.9 0.00 0.00 0.00 41 1011.1
20260508174823 16 119 6.4 9.7 0.00 0.00 0.00 41 1011.0
20260508174320 16 190 11.3 14.5 0.00 0.00 0.00 40 1011.1
20260508173816 16 167 8.0 11.3 0.00 0.00 0.00 42 1011.3
20260508173313 16 248 6.4 9.7 0.00 0.00 0.00 41 1011.2
20260508172809 17 182 8.0 24.1 0.00 0.00 0.00 39 1011.2
20260508172307 17 207 16.1 20.9 0.00 0.00 0.00 39 1011.1
20260508171803 17 274 9.7 12.9 0.00 0.00 0.00 41 1011.2
20260508171259 17 255 9.7 12.9 0.00 0.00 0.00 40 1011.2
20260508170755 16 247 8.0 12.9 0.00 0.00 0.00 39 1011.5
20260508170254 16 176 11.3 24.1 0.00 0.00 0.00 39 1011.3
20260508165750 16 199 9.7 11.3 0.00 0.00 0.00 40 1011.2
20260508165247 16 89 3.2 6.4 0.00 0.00 0.00 39 1011.4
20260508164737 15 71 8.0 9.7 0.00 0.00 0.00 40 1011.5
20260508164234 16 228 9.7 14.5 0.00 0.00 0.00 39 1011.4
20260508163732 16 189 6.4 11.3 0.00 0.00 0.00 39 1011.6
20260508163230 16 117 9.7 14.5 0.00 0.00 0.00 40 1011.6
20260508162725 16 221 11.3 17.7 0.00 0.00 0.00 39 1011.4
20260508162222 16 245 12.9 17.7 0.00 0.00 0.00 38 1011.4
20260508161719 17 160 11.3 20.9 0.00 0.00 0.00 37 1011.8
20260508161217 16 357 11.3 16.1 0.00 0.00 0.00 38 1011.8
20260508160714 16 255 8.0 11.3 0.00 0.00 0.00 40 1011.9
20260508160213 16 214 9.7 12.9 0.00 0.00 0.00 41 1011.7
20260508155709 16 194 9.7 17.7 0.00 0.00 0.00 41 1011.8
20260508155206 15 222 9.7 14.5 0.00 0.00 0.00 39 1011.9
20260508154703 16 215 6.4 11.3 0.00 0.00 0.00 40 1011.7
20260508154200 16 257 6.4 9.7 0.00 0.00 0.00 38 1011.8
20260508153656 16 179 8.0 9.7 0.00 0.00 0.00 39 1011.9
20260508153154 16 211 3.2 3.2 0.00 0.00 0.00 39 1011.7
20260508152650 16 288 4.8 6.4 0.00 0.00 0.00 39 1011.9
20260508152146 16 235 4.8 6.4 0.00 0.00 0.00 38 1011.8
20260508151642 16 248 3.2 4.8 0.00 0.00 0.00 38 1011.7
20260508151139 16 310 4.8 9.7 0.00 0.00 0.00 38 1011.8
20260508150636 15 265 6.4 6.4 0.00 0.00 0.00 40 1011.7
20260508150133 15 227 6.4 6.4 0.00 0.00 0.00 41 1011.8
20260508145629 15 275 4.8 6.4 0.00 0.00 0.00 42 1011.8
20260508145125 15 245 6.4 11.3 0.00 0.00 0.00 42 1012.0
20260508144623 16 212 8.0 9.7 0.00 0.00 0.00 42 1011.7
20260508144120 15 250 1.6 3.2 0.00 0.00 0.00 45 1011.9
20260508143618 15 218 3.2 4.8 0.00 0.00 0.00 43 1012.1
20260508143114 15 250 3.2 3.2 0.00 0.00 0.00 44 1012.0
20260508142611 15 276 4.8 4.8 0.00 0.00 0.00 49 1011.9
20260508142108 15 197 1.6 4.8 0.00 0.00 0.00 47 1011.9
20260508141604 14 289 1.6 3.2 0.00 0.00 0.00 49 1012.0
20260508141102 14 208 3.2 4.8 0.00 0.00 0.00 51 1012.1
20260508140559 13 237 6.4 6.4 0.00 0.00 0.00 52 1012.3
20260508140056 14 284 3.2 4.8 0.00 0.00 0.00 50 1012.1
20260508135551 13 196 6.4 9.7 0.00 0.00 0.00 53 1012.4
20260508135047 13 241 4.8 9.7 0.00 0.00 0.00 51 1012.1
20260508134544 13 244 3.2 6.4 0.00 0.00 0.00 52 1012.2
20260508134042 14 258 6.4 9.7 0.00 0.00 0.00 52 1012.0
20260508133538 13 294 1.6 1.6 0.00 0.00 0.00 52 1012.4
20260508133035 13 167 6.4 9.7 0.00 0.00 0.00 55 1012.1
20260508132533 13 303 4.8 6.4 0.00 0.00 0.00 53 1011.9
20260508132030 13 243 6.4 9.7 0.00 0.00 0.00 54 1012.1
20260508131525 13 280 6.4 6.4 0.00 0.00 0.00 54 1012.0
20260508131022 13 236 3.2 4.8 0.00 0.00 0.00 55 1012.1
20260508130519 13 207 6.4 6.4 0.00 0.00 0.00 55 1012.1
20260508130015 13 287 4.8 4.8 0.00 0.00 0.00 54 1012.2
20260508125510 13 199 4.8 4.8 0.00 0.00 0.00 56 1012.2
20260508125008 13 256 4.8 4.8 0.00 0.00 0.00 57 1012.1
20260508124506 13 281 4.8 4.8 0.00 0.00 0.00 56 1012.0
20260508124003 13 295 1.6 3.2 0.00 0.00 0.00 56 1011.9
20260508123502 12 301 3.2 3.2 0.00 0.00 0.00 60 1011.9
20260508122957 13 266 6.4 6.4 0.00 0.00 0.00 58 1012.2
20260508122455 12 267 3.2 3.2 0.00 0.00 0.00 60 1012.1
20260508121951 12 241 6.4 6.4 0.00 0.00 0.00 61 1012.3
20260508121450 11 295 6.4 6.4 0.00 0.00 0.00 64 1012.6
20260508120948 11 230 3.2 4.8 0.00 0.00 0.00 67 1012.5
20260508120445 12 262 4.8 4.8 0.00 0.00 0.00 65 1012.6
20260508115943 11 202 8.0 12.9 0.00 0.00 0.00 67 1012.6
20260508115440 11 237 4.8 4.8 0.00 0.00 0.00 67 1012.4
20260508114936 11 297 1.6 1.6 0.00 0.00 0.00 68 1012.2
20260508114434 11 281 1.6 3.2 0.00 0.00 0.00 68 1012.4
20260508113930 11 207 6.4 6.4 0.00 0.00 0.00 67 1012.1
20260508113428 11 280 3.2 4.8 0.00 0.00 0.00 68 1012.0
20260508112925 11 273 4.8 4.8 0.00 0.00 0.00 68 1012.2
20260508112422 11 238 3.2 4.8 0.00 0.00 0.00 68 1012.1
20260508111918 11 286 1.6 3.2 0.00 0.00 0.00 70 1012.0
20260508111415 10 295 3.2 3.2 0.00 0.00 0.00 72 1012.1
20260508110913 10 281 3.2 3.2 0.00 0.00 0.00 73 1011.9
20260508110410 10 303 1.6 1.6 0.00 0.00 0.00 73 1011.9
20260508105910 10 303 0.0 0.0 0.00 0.00 0.00 73 1011.7
20260508105406 10 291 0.0 1.6 0.00 0.00 0.00 74 1011.8
20260508104904 9 279 3.2 3.2 0.00 0.00 0.00 74 1011.7
20260508104401 9 287 1.6 1.6 0.00 0.00 0.00 74 1011.5
20260508103858 9 272 3.2 3.2 0.00 0.00 0.00 74 1011.5
20260508103354 10 283 3.2 3.2 0.00 0.00 0.00 73 1011.4
20260508102852 10 298 0.0 0.0 0.00 0.00 0.00 74 1011.4
20260508102350 10 281 1.6 1.6 0.00 0.00 0.00 74 1011.2
20260508101847 9 287 1.6 1.6 0.00 0.00 0.00 74 1011.4
20260508101344 9 271 1.6 1.6 0.00 0.00 0.00 74 1011.4
20260508100842 9 282 1.6 3.2 0.00 0.00 0.00 73 1011.4
20260508100341 10 254 3.2 3.2 0.00 0.00 0.00 73 1011.3
20260508095835 10 284 3.2 3.2 0.00 0.00 0.00 74 1011.3
20260508095333 9 217 3.2 3.2 0.00 0.00 0.00 74 1011.2
20260508094830 10 288 3.2 3.2 0.00 0.00 0.00 73 1011.0
20260508094327 10 294 3.2 3.2 0.00 0.00 0.00 73 1011.1
20260508093824 10 297 1.6 1.6 0.00 0.00 0.00 72 1011.0
20260508093322 10 297 3.2 4.8 0.00 0.00 0.00 72 1011.0
20260508092819 10 294 1.6 1.6 0.00 0.00 0.00 72 1011.0
20260508092317 10 272 3.2 4.8 0.00 0.00 0.00 71 1010.8
20260508091815 10 303 1.6 1.6 0.00 0.00 0.00 71 1010.8
20260508091311 9 305 1.6 1.6 0.00 0.00 0.00 72 1010.5
20260508090809 9 304 1.6 1.6 0.00 0.00 0.00 72 1010.6
20260508090307 9 303 0.0 0.0 0.00 0.00 0.00 73 1010.8
20260508085803 9 295 6.4 9.7 0.00 0.00 0.00 73 1010.8
20260508085300 9 291 6.4 11.3 0.00 0.00 0.00 71 1010.8
20260508084755 10 281 3.2 3.2 0.00 0.00 0.00 71 1010.7
20260508084253 10 284 3.2 4.8 0.00 0.00 0.00 71 1010.7
20260508083751 10 293 1.6 3.2 0.00 0.00 0.00 71 1010.8
20260508083248 10 288 3.2 4.8 0.00 0.00 0.00 71 1010.8
20260508082748 9 298 1.6 3.2 0.00 0.00 0.00 72 1010.8
20260508082246 9 299 3.2 4.8 0.00 0.00 0.00 71 1010.7
20260508081743 9 254 1.6 3.2 0.00 0.00 0.00 71 1010.9
20260508081239 9 295 3.2 4.8 0.00 0.00 0.00 69 1010.5
20260508080736 10 309 6.4 9.7 0.00 0.00 0.00 69 1010.5
20260508080235 10 285 6.4 9.7 0.00 0.00 0.00 68 1010.2
20260508075731 10 301 3.2 4.8 0.00 0.00 0.00 66 1010.0
20260508075228 10 303 6.4 6.4 0.00 0.00 0.00 65 1010.0
20260508074726 10 312 1.6 1.6 0.00 0.00 0.00 64 1009.9
20260508074223 10 307 3.2 3.2 0.00 0.00 0.00 63 1009.7
20260508073719 10 293 6.4 9.7 0.00 0.00 0.00 62 1009.8
20260508073218 10 11 4.8 6.4 0.00 0.00 0.00 61 1009.7
20260508072713 10 289 3.2 4.8 0.00 0.00 0.00 60 1009.8
20260508072210 10 296 1.6 3.2 0.00 0.00 0.00 59 1009.9
20260508071708 11 299 3.2 3.2 0.00 0.00 0.00 60 1009.9
20260508071206 11 298 3.2 4.8 0.00 0.00 0.00 59 1009.8
20260508070703 11 300 6.4 6.4 0.00 0.00 0.00 58 1009.8
20260508070202 11 296 3.2 3.2 0.00 0.00 0.00 59 1009.9
20260508065658 11 303 6.4 6.4 0.00 0.00 0.00 59 1009.9
20260508065156 11 305 8.0 12.9 0.00 0.00 0.00 60 1010.2
20260508064653 11 307 3.2 3.2 0.00 0.00 0.00 61 1010.0
20260508064152 11 286 9.7 12.9 0.00 0.00 0.00 61 1010.0
20260508063649 11 303 3.2 3.2 0.00 0.00 0.00 60 1009.8
20260508063147 12 261 4.8 4.8 0.00 0.00 0.00 58 1010.3
20260508062644 12 304 1.6 1.6 0.00 0.00 0.00 63 1009.8
20260508062140 12 301 3.2 3.2 0.00 0.00 0.00 74 1009.9